Wind_Speed
24 26 27 22 19 15 14 12 11 9 12 16 17 20 13 12 19 18 17 19 13 10 11 10 9 8 5 6 5 3 4 7 9 9 12 15 14 15 15 16 18 20 22 22
26 28 21 19 18 19 21 20 18 16 18 18 17 20 14 15 13 11 13 15 11 10 10 8 8 6 5 5 4 3 4 7 9 9 12 14 13 12 13 15 17 19 19 19
28 17 22 22 22 20 21 22 20 16 17 16 19 22 9 6 9 11 11 9 10 11 10 8 7 5 5 4 3 4 5 7 8 9 12 12 12 12 13 15 16 17 18 17
24 27 19 20 25 21 21 18 17 17 14 7 6 5 12 15 18 12 11 16 12 11 9 8 7 5 6 4 3 4 6 7 7 9 12 11 11 12 13 13 14 15 16 16
22 22 30 25 23 20 21 19 15 14 13 12 13 6 6 5 10 13 12 11 13 12 11 9 7 7 7 5 4 4 6 6 7 9 11 11 9 12 13 13 13 14 15 16
27 18 18 28 24 19 14 14 11 8 7 4 16 16 8 14 15 15 16 14 17 15 12 9 8 9 7 6 4 4 6 6 8 9 10 11 9 11 13 12 12 11 12 13
29 27 24 20 24 20 20 16 2 1 1 6 8 13 16 13 13 13 11 12 11 14 12 9 9 10 8 7 5 4 6 6 8 10 10 11 9 9 12 13 12 11 10 10
28 14 28 25 26 25 29 23 7 7 4 3 9 9 6 16 17 16 15 12 11 12 11 10 11 11 10 8 6 4 6 7 8 10 11 11 9 9 10 12 11 10 9 7
27 18 23 24 27 24 26 25 23 3 3 1 6 6 8 10 12 14 12 13 14 14 13 12 12 12 12 10 8 5 6 7 9 10 11 11 11 9 9 11 11 9 7 6
16 10 22 28 27 27 20 25 15 12 3 3 4 7 11 12 17 15 14 13 13 16 15 12 13 14 14 12 10 7 7 7 8 10 12 11 12 10 9 9 10 9 6 4
33 18 13 27 33 33 28 26 15 13 7 5 2 5 13 16 12 10 12 11 10 11 12 16 16 16 17 16 13 11 9 9 9 10 12 13 12 12 10 9 8 9 6 4
44 23 14 22 23 32 34 28 30 16 7 13 3 4 5 9 13 13 10 7 6 6 6 9 13 15 17 17 16 14 13 11 11 11 12 13 13 12 10 8 7 9 6 4
42 18 10 9 20 23 32 35 32 29 21 18 8 5 17 16 16 15 13 10 7 6 4 2 3 9 14 17 17 17 15 13 11 11 12 12 13 12 10 8 8 7 5 4
30 25 25 19 15 28 34 36 38 34 23 19 25 14 22 25 22 19 16 13 10 7 6 6 5 5 8 10 15 17 16 15 12 10 11 12 12 12 11 9 7 8 5 4
31 27 30 18 15 19 27 35 34 44 42 23 28 19 14 20 26 23 21 18 18 18 18 15 15 17 17 14 13 12 15 15 13 10 10 10 11 10 11 10 8 7 6 5
35 17 26 20 17 15 15 16 26 37 38 41 19 23 27 21 21 22 24 24 24 25 25 24 24 23 24 24 20 16 14 14 13 11 10 9 11 9 9 8 8 7 7 6
41 23 27 15 15 12 14 26 20 22 29 34 38 29 27 28 29 26 26 27 27 28 27 26 26 24 22 22 21 21 17 15 13 13 11 9 10 9 9 7 7 8 8 7
37 30 15 11 18 2 17 18 18 24 21 20 23 20 26 33 34 32 29 28 21 22 21 18 16 15 16 18 20 21 21 19 16 15 14 12 10 11 10 7 5 7 8 9
30 27 14 11 14 5 14 19 20 19 20 20 22 19 19 21 24 25 20 19 19 16 12 10 10 9 10 13 17 18 19 21 20 18 18 17 14 11 11 8 4 4 7 9
26 28 29 16 7 9 13 17 13 12 22 18 21 24 25 26 27 24 21 17 14 11 9 8 7 7 6 7 7 8 11 14 18 19 19 18 17 14 9 11 5 4 4 9
34 35 31 22 11 11 16 13 16 19 13 12 23 24 25 22 22 20 18 17 15 12 10 7 6 6 7 8 11 10 9 8 8 8 9 17 19 17 11 17 9 4 2 9
31 27 24 22 15 13 15 20 24 14 13 9 11 15 17 18 18 17 20 19 15 11 9 8 8 8 7 7 8 9 10 11 13 13 15 15 14 19 20 21 17 11 9 9
25 30 27 31 28 8 21 15 17 18 14 13 9 9 14 17 18 20 21 19 15 9 9 9 9 8 8 8 9 8 11 13 15 14 16 14 28 16 20 21 23 21 17 16
29 34 24 27 29 23 17 20 21 18 16 14 11 10 17 18 19 21 19 16 12 11 13 14 12 11 10 10 10 10 10 11 10 13 14 17 16 21 23 27 25 24 22 20
34 32 30 31 21 21 24 22 22 22 20 16 16 16 18 21 20 20 19 18 18 18 18 17 18 18 18 19 19 18 17 17 16 16 14 13 17 21 18 21 33 32 27 28
34 37 36 32 28 23 24 27 24 22 21 20 20 21 23 22 21 21 22 22 22 21 20 20 21 22 22 22 24 24 23 22 24 24 21 19 17 19 21 18 25 30 32 29
Wind_Direction
221 222 225 235 236 236 241 228 227 233 257 275 278 276 276 276 265 272 267 269 281 277 283 288 287 293 278 257 257 246 275 289 300 310 311 321 333 338 343 348 346 343 347 341
219 229 232 230 223 224 230 234 238 250 265 274 283 278 293 275 277 270 259 259 260 268 274 277 281 279 254 244 228 257 284 292 306 310 316 324 334 342 349 351 346 342 346 347
228 230 228 223 226 222 228 237 245 254 259 272 288 292 241 241 299 283 262 236 248 253 255 264 268 265 243 222 243 269 290 297 309 310 317 325 338 343 352 352 345 340 348 349
233 228 229 217 226 229 238 243 243 248 260 260 250 284 219 275 277 260 259 234 248 244 237 244 251 240 220 231 251 281 292 310 309 311 321 324 343 342 345 343 339 346 353 354
215 223 225 222 226 226 233 242 239 245 245 244 235 250 250 244 250 245 250 228 230 243 230 230 230 215 213 234 254 287 298 315 311 311 322 322 336 346 342 340 340 353 360 3
219 219 218 224 224 222 215 210 205 207 216 255 241 219 233 230 245 250 256 258 249 235 224 223 218 208 215 233 255 282 304 321 314 312 323 325 319 344 345 341 339 348 8 15
216 219 220 214 211 206 200 187 112 341 214 220 200 207 232 222 234 253 265 268 246 215 217 215 206 209 214 229 252 286 307 326 316 313 322 329 314 328 342 343 338 342 360 28
202 209 213 215 210 210 205 201 192 198 194 222 188 225 237 241 246 257 257 239 242 226 219 216 211 213 213 226 246 280 306 325 322 317 321 329 325 312 331 342 341 344 349 18
203 209 207 208 213 205 202 206 216 162 144 133 211 228 238 224 224 236 248 242 227 224 220 216 215 215 217 225 241 268 303 323 327 321 321 327 331 318 316 337 342 342 353 351
210 192 202 203 205 206 203 199 189 207 141 225 248 224 223 236 245 246 248 245 234 228 221 218 220 217 221 227 240 261 294 318 325 323 324 325 329 326 316 324 341 336 354 335
212 208 194 196 203 207 201 194 196 196 210 166 176 227 214 225 239 244 240 241 242 240 234 231 224 219 223 228 238 254 277 301 312 320 321 324 326 328 324 314 334 327 345 329
214 201 200 201 212 215 216 212 207 196 201 212 181 231 192 216 229 227 220 203 196 206 209 218 221 223 228 235 242 252 266 282 296 306 309 315 322 325 324 313 314 323 329 318
206 208 158 194 217 215 219 217 214 217 226 214 182 208 200 212 216 206 191 173 147 124 110 109 217 231 235 239 244 250 258 268 282 296 299 305 316 317 318 317 299 309 316 299
211 212 209 210 219 212 216 221 216 215 223 220 221 218 204 210 213 210 205 204 215 237 274 292 290 299 299 272 255 250 251 256 265 279 287 291 305 312 314 316 297 288 298 281
191 207 206 220 214 202 222 224 216 214 221 217 228 222 227 228 221 223 235 250 262 268 276 283 284 283 281 280 275 263 251 251 255 263 273 279 288 305 308 314 305 278 285 269
194 197 204 191 188 186 198 202 215 223 221 221 223 230 231 230 231 240 252 263 271 281 289 290 293 290 284 276 269 264 252 249 252 254 261 269 272 291 298 305 310 282 268 258
196 187 195 203 201 204 235 219 217 215 219 224 228 240 237 238 245 250 257 264 275 286 289 290 289 284 276 267 257 253 249 251 248 247 250 263 271 275 282 289 304 297 265 245
188 186 195 181 174 188 235 230 229 238 240 236 241 240 243 248 252 253 258 269 267 274 279 282 281 275 268 257 248 247 242 238 238 238 240 247 260 272 276 277 292 303 269 240
188 183 186 174 198 240 223 209 204 216 233 229 235 232 229 230 238 241 239 248 261 255 254 261 271 271 263 254 249 245 243 240 233 229 237 237 236 250 267 265 264 319 276 235
189 203 205 182 168 209 242 230 215 210 248 227 229 236 236 234 236 244 255 243 223 224 230 236 248 259 255 246 219 227 240 243 242 241 241 242 247 245 249 262 243 108 288 257
188 196 200 195 204 234 218 177 183 199 252 244 230 233 241 241 241 245 222 203 200 200 203 214 232 253 258 251 240 253 259 256 262 259 258 242 239 247 236 269 239 158 4 260
182 172 193 193 202 233 205 195 207 240 236 214 202 214 210 203 196 190 194 192 194 202 212 225 237 243 251 253 249 248 254 260 270 278 269 268 255 251 235 237 254 230 215 253
190 191 186 204 215 208 212 220 219 223 223 228 234 199 192 194 190 189 190 188 194 214 237 239 240 244 249 256 264 268 263 261 258 258 274 294 255 261 252 238 236 240 223 229
193 202 204 211 222 215 219 206 203 209 218 221 216 205 186 192 189 186 192 196 222 240 240 242 248 256 264 268 274 276 272 271 278 281 268 259 276 254 253 240 237 238 229 214
205 206 210 217 223 212 205 204 208 212 210 207 191 188 191 192 192 201 216 236 250 248 244 247 258 267 275 280 279 280 283 281 280 276 278 271 258 260 280 260 245 233 238 243
209 213 213 216 219 220 213 213 211 207 209 215 216 201 199 208 216 226 241 243 242 239 247 261 269 274 280 283 281 277 280 283 278 273 274 271 266 264 252 271 252 251 237 230
Height
3085 3087 3087 3092 3095 3098 3100 3100 3102 3102 3102 3101 3100 3097 3099 3100 3099 3099 3098 3096 3097 3098 3098 3098 3098 3097 3097 3095 3095 3095 3096 3095 3095 3093 3092 3090 3088 3085 3082 3078 3075 3071 3068 3066
3081 3080 3087 3090 3092 3094 3097 3097 3099 3100 3099 3099 3098 3094 3095 3094 3094 3094 3094 3094 3093 3093 3095 3095 3095 3095 3095 3094 3094 3094 3094 3093 3093 3091 3091 3089 3087 3084 3080 3077 3073 3069 3066 3064
3076 3079 3080 3084 3087 3089 3091 3093 3096 3098 3097 3096 3094 3091 3092 3091 3090 3090 3091 3092 3093 3091 3090 3092 3093 3094 3093 3093 3093 3092 3092 3091 3091 3090 3090 3087 3084 3082 3079 3075 3071 3067 3064 3062
3073 3074 3077 3079 3082 3086 3087 3091 3093 3094 3096 3096 3094 3091 3089 3088 3087 3086 3086 3088 3091 3090 3088 3089 3090 3092 3093 3092 3092 3091 3090 3090 3089 3088 3088 3085 3082 3079 3077 3074 3070 3066 3063 3061
3065 3067 3070 3073 3078 3082 3084 3087 3089 3091 3092 3093 3092 3093 3085 3083 3084 3084 3084 3084 3086 3088 3087 3087 3088 3089 3090 3091 3091 3090 3090 3089 3088 3087 3086 3084 3081 3078 3075 3073 3069 3065 3062 3060
3061 3064 3066 3069 3073 3078 3081 3084 3087 3088 3090 3090 3086 3088 3081 3080 3080 3080 3081 3082 3082 3084 3085 3086 3086 3087 3088 3089 3089 3089 3088 3088 3087 3085 3084 3082 3080 3077 3074 3072 3069 3065 3061 3060
3055 3059 3060 3064 3067 3073 3077 3081 3086 3091 3092 3085 3081 3083 3077 3077 3076 3076 3078 3078 3079 3080 3082 3084 3084 3085 3086 3087 3087 3088 3087 3086 3086 3084 3082 3080 3078 3076 3073 3071 3068 3065 3061 3058
3046 3055 3054 3058 3060 3064 3069 3075 3076 3084 3084 3077 3078 3076 3072 3073 3074 3073 3072 3075 3077 3078 3080 3081 3082 3082 3084 3085 3086 3086 3086 3085 3084 3084 3081 3079 3077 3075 3072 3070 3068 3065 3062 3059
3039 3045 3046 3050 3056 3063 3063 3067 3074 3073 3073 3074 3071 3070 3071 3070 3070 3072 3070 3070 3073 3075 3077 3078 3079 3080 3082 3083 3084 3084 3084 3084 3083 3082 3080 3078 3075 3073 3071 3069 3067 3065 3062 3059
3033 3039 3041 3045 3051 3055 3057 3061 3068 3070 3075 3076 3065 3066 3064 3066 3067 3069 3069 3068 3069 3072 3073 3075 3077 3078 3079 3080 3081 3082 3082 3081 3081 3080 3079 3076 3074 3072 3070 3068 3066 3064 3062 3060
3027 3034 3038 3040 3041 3046 3050 3052 3058 3062 3062 3063 3067 3060 3059 3063 3063 3064 3066 3066 3067 3069 3069 3071 3073 3075 3076 3077 3079 3079 3080 3079 3079 3078 3077 3075 3073 3071 3069 3067 3065 3064 3062 3060
3018 3026 3031 3034 3036 3041 3043 3046 3051 3053 3057 3057 3056 3058 3057 3060 3061 3061 3064 3065 3066 3066 3067 3068 3069 3071 3073 3075 3076 3077 3077 3077 3076 3076 3074 3073 3071 3069 3067 3066 3064 3063 3062 3059
3008 3016 3023 3029 3033 3031 3034 3040 3046 3048 3050 3050 3054 3054 3055 3057 3058 3059 3061 3063 3064 3065 3066 3067 3067 3067 3069 3070 3071 3073 3073 3073 3073 3073 3072 3070 3069 3067 3065 3064 3063 3062 3061 3059
3005 3007 3009 3010 3013 3020 3026 3031 3037 3043 3044 3046 3045 3047 3049 3052 3055 3057 3059 3060 3061 3062 3063 3065 3065 3065 3066 3067 3067 3068 3068 3069 3069 3070 3069 3068 3067 3065 3064 3062 3061 3061 3060 3059
3001 3002 3007 3009 3012 3014 3017 3023 3028 3030 3036 3040 3042 3044 3047 3048 3051 3054 3056 3056 3057 3058 3059 3061 3061 3061 3063 3064 3063 3064 3064 3064 3065 3066 3065 3065 3064 3063 3062 3060 3059 3059 3059 3059
2994 2997 3003 3006 3009 3011 3014 3016 3019 3024 3029 3033 3036 3039 3043 3045 3046 3050 3051 3051 3051 3052 3053 3054 3054 3055 3056 3057 3059 3060 3059 3060 3061 3062 3062 3061 3061 3060 3059 3058 3058 3057 3057 3057
2986 2991 2999 3004 3006 3009 3011 3008 3013 3017 3021 3026 3028 3033 3037 3039 3040 3043 3045 3046 3046 3047 3047 3047 3048 3049 3050 3051 3052 3053 3055 3056 3057 3058 3059 3058 3058 3057 3056 3055 3055 3055 3055 3055
2979 2984 2998 2999 3004 3010 3000 3003 3009 3012 3017 3020 3023 3028 3032 3034 3035 3036 3037 3039 3041 3042 3043 3043 3042 3043 3043 3044 3045 3046 3048 3049 3052 3053 3054 3054 3054 3054 3054 3053 3052 3052 3053 3053
2975 2979 2993 2996 2998 2998 2995 2997 3001 3005 3009 3013 3016 3021 3025 3027 3028 3028 3031 3034 3036 3037 3039 3040 3040 3039 3039 3039 3040 3041 3042 3043 3045 3047 3049 3050 3049 3049 3050 3051 3050 3050 3051 3052
2970 2979 2987 2990 2993 2994 2990 2994 2998 3002 3001 3007 3011 3013 3015 3019 3022 3025 3027 3029 3031 3034 3036 3037 3037 3037 3037 3037 3037 3037 3038 3038 3039 3041 3043 3045 3047 3047 3045 3049 3048 3046 3049 3051
2964 2974 2977 2979 2985 2984 2985 2991 2994 2999 2999 2998 3001 3006 3009 3013 3018 3020 3022 3025 3028 3030 3032 3033 3034 3034 3034 3035 3035 3035 3036 3036 3037 3037 3039 3040 3041 3045 3042 3047 3045 3044 3046 3049
2953 2962 2969 2973 2978 2980 2980 2985 2987 2991 2991 2994 2997 3001 3004 3008 3012 3015 3019 3022 3025 3028 3029 3031 3033 3032 3032 3032 3032 3032 3033 3033 3033 3033 3035 3036 3036 3037 3039 3041 3043 3043 3040 3046
2950 2950 2955 2963 2963 2968 2973 2979 2982 2985 2989 2993 2997 2999 3002 3006 3008 3012 3016 3020 3023 3026 3028 3028 3030 3029 3030 3030 3030 3029 3029 3028 3028 3029 3030 3030 3031 3031 3034 3035 3037 3039 3038 3039
2942 2945 2951 2957 2960 2965 2971 2976 2978 2982 2986 2990 2993 2996 3000 3002 3006 3010 3014 3018 3021 3023 3024 3025 3026 3026 3026 3027 3027 3027 3027 3026 3025 3025 3024 3025 3025 3026 3027 3029 3030 3031 3032 3034
2931 2939 2945 2951 2955 2961 2967 2972 2974 2978 2982 2986 2990 2994 2998 3001 3004 3008 3011 3014 3016 3018 3020 3021 3021 3023 3023 3023 3023 3023 3022 3021 3021 3021 3021 3020 3020 3020 3019 3021 3022 3023 3025 3026
2928 2934 2940 2943 2952 2957 2963 2967 2971 2974 2978 2982 2986 2991 2995 2998 3000 3003 3006 3009 3011 3012 3014 3016 3017 3017 3017 3017 3016 3017 3016 3016 3015 3014 3014 3014 3013 3014 3013 3014 3015 3016 3017 3018